TimeCDT,TemperatureF,Dew PointF,Humidity,Sea Level PressureIn,VisibilityMPH,Wind Direction,Wind SpeedMPH,Gust SpeedMPH,PrecipitationIn,Events,Conditions,WindDirDegrees,DateUTC
12:56 AM,57.9,57.0,97,29.45,-9999.0,East,5.8,-,N/A,,Unknown,100,2013-05-21 05:56:00
1:56 AM,57.9,57.0,97,29.45,-9999.0,ENE,8.1,-,N/A,,Unknown,70,2013-05-21 06:56:00
2:56 AM,57.9,57.0,97,29.45,-9999.0,East,9.2,-,N/A,,Unknown,90,2013-05-21 07:56:00
3:56 AM,57.0,55.9,96,29.47,-9999.0,East,13.8,-,0.01,,Unknown,80,2013-05-21 08:56:00
4:56 AM,55.0,54.0,96,29.49,-9999.0,East,18.4,23.0,0.01,,Unknown,80,2013-05-21 09:56:00
5:56 AM,54.0,53.1,97,29.51,-9999.0,East,12.7,-,0.03,,Unknown,80,2013-05-21 10:56:00
6:56 AM,52.0,52.0,100,29.53,-9999.0,ENE,12.7,-,0.04,,Unknown,60,2013-05-21 11:56:00
7:56 AM,52.0,51.1,97,29.55,-9999.0,NE,16.1,21.9,0.02,,Unknown,50,2013-05-21 12:56:00
8:56 AM,51.1,50.0,96,29.57,-9999.0,NE,13.8,23.0,0.02,,Unknown,50,2013-05-21 13:56:00
9:56 AM,51.1,50.0,96,29.59,-9999.0,NE,13.8,-,0.01,,Unknown,50,2013-05-21 14:56:00
10:56 AM,52.0,51.1,97,29.60,-9999.0,NNE,12.7,-,0.19,,Unknown,30,2013-05-21 15:56:00
11:56 AM,53.1,51.1,93,29.61,-9999.0,NE,15.0,-,0.04,,Unknown,40,2013-05-21 16:56:00
12:56 PM,53.1,51.1,93,29.63,-9999.0,NE,16.1,-,0.01,,Unknown,50,2013-05-21 17:56:00
1:56 PM,53.1,51.1,93,29.65,-9999.0,NE,12.7,-,N/A,,Unknown,40,2013-05-21 18:56:00
2:56 PM,53.1,50.0,89,29.66,-9999.0,NNE,16.1,-,0.02,,Unknown,30,2013-05-21 19:56:00
3:56 PM,53.1,52.0,96,29.68,-9999.0,NNE,13.8,-,N/A,,Unknown,20,2013-05-21 20:56:00
4:56 PM,52.0,51.1,97,29.70,-9999.0,NNE,15.0,-,0.03,,Unknown,20,2013-05-21 21:56:00
5:56 PM,52.0,51.1,97,29.72,-9999.0,NNE,13.8,-,0.07,,Unknown,20,2013-05-21 22:56:00
6:56 PM,52.0,50.0,93,29.73,-9999.0,NNE,16.1,-,0.01,,Unknown,20,2013-05-21 23:56:00
7:56 PM,52.0,48.9,89,29.74,-9999.0,NE,15.0,-,N/A,,Unknown,40,2013-05-22 00:56:00
8:56 PM,51.1,48.9,92,29.75,-9999.0,NNE,19.6,-,N/A,,Unknown,30,2013-05-22 01:56:00
9:56 PM,50.0,48.0,93,29.78,-9999.0,NE,11.5,-,N/A,,Unknown,40,2013-05-22 02:56:00
10:56 PM,48.0,46.9,96,29.81,-9999.0,NE,12.7,-,0.02,,Unknown,40,2013-05-22 03:56:00
11:56 PM,48.0,46.9,96,29.81,-9999.0,NNE,9.2,-,0.04,,Unknown,30,2013-05-22 04:56:00